Simultaneous Nadir Overpasses (SNOs) Predictions

Prediction of SNOs between LANDSAT-8 and NOAA-19 Satellite Orbit:

Table of predicted SNOs for the next 14.0 days since TLE Epoch: 10/26/2024
Index Date (LANDSAT-8) Time (LANDSAT-8) Lat,Lon (LANDSAT-8) SZA (LANDSAT-8 ) Date (NOAA-19) Time (NOAA-19) Lat,Lon (NOAA-19) SZA (NOAA-19 ) Distance(km) Time Diff (sec)
1 10/26/2024 10:00:14 -80.36,-119.28 85.34 10/26/2024 10:00:29 -80.35,-119.41 85.35 2.45 15
2 10/28/2024 16:23:23 -80.33, 144.72 84.62 10/28/2024 16:23:03 -80.35, 144.88 84.60 3.20 20
3 10/28/2024 17:12:47 80.40, -47.03 95.51 10/28/2024 17:13:59 80.39, -47.15 95.52 2.36 72
4 10/30/2024 22:46:32 -80.29, 48.48 83.96 10/30/2024 22:45:39 -80.29, 48.40 83.98 1.47 53
5 10/30/2024 23:35:56 80.35,-143.30 96.16 10/30/2024 23:36:35 80.35,-143.46 96.16 2.98 39
6 11/02/2024 05:59:03 80.34, 120.82 96.87 11/02/2024 05:59:09 80.33, 120.80 96.86 0.58 6
7 11/04/2024 12:22:10 80.30, 24.71 97.50 11/04/2024 12:21:44 80.30, 24.62 97.48 1.90 26
8 11/04/2024 13:11:35 -80.37,-166.99 82.37 11/04/2024 13:12:38 -80.37,-166.98 82.35 0.29 63
9 11/06/2024 18:45:16 80.27, -71.33 98.13 11/06/2024 18:44:18 80.27, -71.34 98.10 0.44 58
10 11/06/2024 19:34:41 -80.34, 96.98 81.75 11/06/2024 19:35:12 -80.33, 96.89 81.75 1.90 31



Historial Predications of SNOs between LANDSAT-8 and NOAA-19
